Meteo pe oră la Bolshie Mochily

Astăzi, 9 Mai, Duminică

Timp Temperatura Precipitaţii Vânt Presiune Umiditate
00:00 +11°C° 0.2 mm 6 m/s 745 mmHg 91%
01:00 +11°C° 0.4 mm 6 m/s 745 mmHg 93%
02:00 +11°C° 0.4 mm 6 m/s 745 mmHg 94%
03:00 +12°C° 0.4 mm 5 m/s 745 mmHg 95%
04:00 +12°C° 0.3 mm 5 m/s 745 mmHg 95%
05:00 +11°C° 0.3 mm 4 m/s 745 mmHg 94%
06:00 +11°C° 0.3 mm 3 m/s 746 mmHg 93%
07:00 +11°C° 0.2 mm 3 m/s 746 mmHg 93%
08:00 +11°C° 0.2 mm 3 m/s 746 mmHg 93%
09:00 +12°C° 0.2 mm 2 m/s 746 mmHg 93%
10:00 +10°C° 0.6 mm 3 m/s 747 mmHg 92%
11:00 +10°C° 0.6 mm 3 m/s 747 mmHg 91%
12:00 +9°C° 0.6 mm 3 m/s 747 mmHg 90%
13:00 +8°C° 0.3 mm 4 m/s 748 mmHg 89%
14:00 +8°C° 0.3 mm 4 m/s 748 mmHg 89%
15:00 +8°C° 0.3 mm 4 m/s 749 mmHg 89%
16:00 +7°C° 0.1 mm 4 m/s 750 mmHg 90%
17:00 +6°C° 0.1 mm 4 m/s 750 mmHg 91%
18:00 +5°C° 0.1 mm 5 m/s 751 mmHg 93%
19:00 +5°C° 0 mm 5 m/s 752 mmHg 93%
20:00 +3°C° 0 mm 5 m/s 753 mmHg 93%
21:00 +4°C° 0 mm 4 m/s 753 mmHg 94%
22:00 +4°C° 0 mm 4 m/s 754 mmHg 93%
23:00 +5°C° 0 mm 4 m/s 754 mmHg 92%

Mâine, 10 Mai, Luni

Timp Temperatura Precipitaţii Vânt Presiune Umiditate
00:00 +5°C° 0 mm 5 m/s 755 mmHg 92%
01:00 +5°C° 0 mm 5 m/s 755 mmHg 91%
02:00 +5°C° 0 mm 5 m/s 756 mmHg 91%
03:00 +3°C° 0 mm 5 m/s 756 mmHg 90%
04:00 +3°C° 0 mm 5 m/s 757 mmHg 89%
05:00 +3°C° 0 mm 5 m/s 757 mmHg 89%
06:00 +3°C° 0 mm 5 m/s 758 mmHg 88%
07:00 +4°C° 0 mm 6 m/s 759 mmHg 80%
08:00 +7°C° 0 mm 6 m/s 759 mmHg 73%
09:00 +8°C° 0 mm 7 m/s 759 mmHg 66%
10:00 +9°C° 0 mm 7 m/s 760 mmHg 62%
11:00 +10°C° 0 mm 6 m/s 760 mmHg 59%
12:00 +11°C° 0 mm 6 m/s 760 mmHg 55%
13:00 +13°C° 0 mm 6 m/s 760 mmHg 55%
14:00 +13°C° 0 mm 6 m/s 760 mmHg 55%
15:00 +14°C° 0 mm 6 m/s 760 mmHg 54%
16:00 +13°C° 0 mm 6 m/s 760 mmHg 58%
17:00 +13°C° 0 mm 6 m/s 761 mmHg 62%
18:00 +12°C° 0 mm 5 m/s 761 mmHg 66%
19:00 +10°C° 0 mm 5 m/s 761 mmHg 72%
20:00 +8°C° 0 mm 4 m/s 761 mmHg 78%
21:00 +6°C° 0 mm 4 m/s 762 mmHg 84%
22:00 +6°C° 0 mm 4 m/s 762 mmHg 85%
23:00 +6°C° 0 mm 4 m/s 762 mmHg 87%

Poimâine, 11 Mai, Marţi

Timp Temperatura Precipitaţii Vânt Presiune Umiditate
00:00 +5°C° 0 mm 5 m/s 762 mmHg 88%
01:00 +5°C° 0 mm 5 m/s 762 mmHg 89%
02:00 +5°C° 0 mm 5 m/s 762 mmHg 90%
03:00 +5°C° 0 mm 5 m/s 762 mmHg 90%
04:00 +5°C° 0 mm 5 m/s 762 mmHg 88%
05:00 +5°C° 0 mm 5 m/s 762 mmHg 85%
06:00 +6°C° 0 mm 5 m/s 762 mmHg 82%
07:00 +7°C° 0 mm 6 m/s 762 mmHg 77%
08:00 +9°C° 0 mm 6 m/s 763 mmHg 72%
09:00 +11°C° 0 mm 6 m/s 763 mmHg 67%
10:00 +13°C° 0 mm 6 m/s 763 mmHg 66%
11:00 +14°C° 0 mm 6 m/s 762 mmHg 65%
12:00 +15°C° 0 mm 6 m/s 762 mmHg 64%
13:00 +16°C° 0 mm 6 m/s 762 mmHg 64%
14:00 +17°C° 0 mm 6 m/s 762 mmHg 64%
15:00 +19°C° 0 mm 6 m/s 762 mmHg 64%
16:00 +17°C° 0 mm 5 m/s 762 mmHg 67%
17:00 +17°C° 0 mm 5 m/s 762 mmHg 71%
18:00 +17°C° 0 mm 5 m/s 762 mmHg 74%
19:00 +15°C° 0 mm 4 m/s 762 mmHg 79%
20:00 +14°C° 0 mm 4 m/s 762 mmHg 84%
21:00 +12°C° 0 mm 4 m/s 762 mmHg 89%
22:00 +12°C° 0 mm 4 m/s 762 mmHg 90%
23:00 +11°C° 0 mm 4 m/s 762 mmHg 91%

12 Mai, Miercuri

Timp Temperatura Precipitaţii Vânt Presiune Umiditate
00:00 +11°C° 0 mm 4 m/s 761 mmHg 92%
01:00 +11°C° 0 mm 4 m/s 761 mmHg 93%
02:00 +10°C° 0 mm 3 m/s 761 mmHg 93%
03:00 +10°C° 0 mm 3 m/s 761 mmHg 94%
04:00 +11°C° 0 mm 4 m/s 761 mmHg 92%
05:00 +11°C° 0 mm 4 m/s 760 mmHg 91%
06:00 +12°C° 0 mm 5 m/s 760 mmHg 89%
07:00 +13°C° 0 mm 5 m/s 760 mmHg 87%
08:00 +13°C° 0 mm 5 m/s 760 mmHg 84%
09:00 +14°C° 0 mm 5 m/s 760 mmHg 82%
10:00 +15°C° 0 mm 5 m/s 760 mmHg 81%
11:00 +17°C° 0 mm 4 m/s 761 mmHg 80%
12:00 +17°C° 0 mm 4 m/s 761 mmHg 79%
13:00 +19°C° 0 mm 4 m/s 760 mmHg 75%
14:00 +20°C° 0 mm 4 m/s 760 mmHg 70%
15:00 +21°C° 0 mm 4 m/s 760 mmHg 66%
16:00 +21°C° 0 mm 4 m/s 760 mmHg 68%
17:00 +20°C° 0 mm 4 m/s 760 mmHg 70%
18:00 +20°C° 0 mm 4 m/s 760 mmHg 72%
19:00 +19°C° 0 mm 4 m/s 760 mmHg 75%
20:00 +18°C° 0 mm 3 m/s 760 mmHg 78%
21:00 +16°C° 0 mm 3 m/s 759 mmHg 82%
22:00 +16°C° 0.2 mm 3 m/s 759 mmHg 83%
23:00 +15°C° 0.2 mm 4 m/s 759 mmHg 85%

13 Mai, Joi

Timp Temperatura Precipitaţii Vânt Presiune Umiditate
00:00 +15°C° 0.2 mm 4 m/s 760 mmHg 87%
01:00 +14°C° 0.2 mm 4 m/s 759 mmHg 88%
02:00 +14°C° 0.2 mm 4 m/s 759 mmHg 90%
03:00 +14°C° 0.2 mm 4 m/s 759 mmHg 91%
04:00 +14°C° 0 mm 4 m/s 758 mmHg 89%
05:00 +14°C° 0 mm 4 m/s 758 mmHg 87%
06:00 +14°C° 0 mm 4 m/s 758 mmHg 85%
07:00 +15°C° 0 mm 5 m/s 758 mmHg 79%
08:00 +17°C° 0 mm 5 m/s 758 mmHg 74%
09:00 +19°C° 0 mm 6 m/s 758 mmHg 68%
10:00 +17°C° 0.1 mm 5 m/s 758 mmHg 73%
11:00 +17°C° 0.1 mm 4 m/s 758 mmHg 78%
12:00 +16°C° 0.1 mm 3 m/s 758 mmHg 83%
13:00 +17°C° 0 mm 3 m/s 758 mmHg 79%
14:00 +18°C° 0 mm 4 m/s 757 mmHg 74%
15:00 +20°C° 0 mm 4 m/s 757 mmHg 70%
16:00 +20°C° 0.1 mm 4 m/s 757 mmHg 71%
17:00 +20°C° 0.1 mm 4 m/s 757 mmHg 72%
18:00 +20°C° 0.1 mm 4 m/s 757 mmHg 73%
19:00 +19°C° 0 mm 4 m/s 757 mmHg 79%
20:00 +17°C° 0 mm 3 m/s 757 mmHg 84%
21:00 +16°C° 0 mm 3 m/s 757 mmHg 90%
22:00 +14°C° 0 mm 3 m/s 757 mmHg 91%
23:00 +14°C° 0 mm 3 m/s 757 mmHg 92%

14 Mai, Vineri

Timp Temperatura Precipitaţii Vânt Presiune Umiditate
00:00 +14°C° 0 mm 3 m/s 757 mmHg 93%
01:00 +13°C° 0 mm 3 m/s 757 mmHg 92%
02:00 +14°C° 0 mm 2 m/s 757 mmHg 92%
03:00 +14°C° 0 mm 2 m/s 757 mmHg 91%
04:00 +15°C° 0 mm 2 m/s 756 mmHg 91%
05:00 +15°C° 0 mm 2 m/s 756 mmHg 90%
06:00 +16°C° 0 mm 2 m/s 756 mmHg 89%
07:00 +17°C° 0 mm 3 m/s 756 mmHg 83%
08:00 +18°C° 0 mm 4 m/s 756 mmHg 78%
09:00 +20°C° 0 mm 4 m/s 756 mmHg 72%
10:00 +21°C° 0 mm 4 m/s 756 mmHg 69%
11:00 +23°C° 0 mm 5 m/s 755 mmHg 65%
12:00 +25°C° 0 mm 5 m/s 755 mmHg 61%
13:00 +26°C° 0 mm 5 m/s 755 mmHg 61%
14:00 +26°C° 0 mm 5 m/s 755 mmHg 60%
15:00 +27°C° 0 mm 5 m/s 755 mmHg 59%
16:00 +26°C° 0 mm 5 m/s 754 mmHg 63%
17:00 +25°C° 0 mm 5 m/s 754 mmHg 68%
18:00 +23°C° 0 mm 4 m/s 754 mmHg 72%
19:00 +22°C° 0.1 mm 4 m/s 754 mmHg 75%
20:00 +20°C° 0.1 mm 4 m/s 754 mmHg 78%
21:00 +19°C° 0.1 mm 4 m/s 754 mmHg 81%
22:00 +18°C° 0.2 mm 4 m/s 754 mmHg 83%
23:00 +18°C° 0.2 mm 4 m/s 754 mmHg 84%
Arată mai mult

Formular de consimțământ

Meteoprog și furnizorii noștri de servicii pot stoca și accesa date personale, precum cookies, identificatori de dispozitiv sau alte tehnologii similare pe dispozitivul dumneavoastră și procesa astfel de date pentru a personaliza conținutul și reclamele, dar și pentru a oferi caracteristici de social media și pentru a analiza traficul.

  • Stocarea și/sau accesarea informațiilor pe dispozitivul dumneavoastră

    Cookies, identificatori de dispozitiv sau alte informații pot fi stocate sau accesate pe dispozitiv în scopurile indicate mai sus.

  • Reclame și conținut personalizat, evaluarea reclamelor și a conținutului, informații despre audiențe și dezvoltarea produselor

    Reclamele și conținutul pot fi personalizate pe baza unui profil. Pot fi adăugate date suplimentare pentru a personaliza mai bine reclamele și conținutul. Performanța reclamelor și conținutului poate fi măsurată. Pot fi obținute informații despre utilizatorii care au văzut reclamele și conținutul. Aceste date pot fi utilizate pentru a dezvolta sau îmbunătăți experiența utilizatorilor, sistemele și software-ul.

Dând clic pe ‘Sunt de acord’, permiteți utilizarea cookie-urilor menționate, a identificatorilor de dispozitiv, balizelor web sau altor tehnologii similare. Setările pot fi modificate din browser-ul dispozitivului dumneavoastră.

În anumite scopuri, interesele legitime pot prima asupra consimțământului. Puteți citi mai multe informații în acest sens în Politica privind Confidențialitatea Datelor și Cookie.